Weather History for KVTN - March, 2013

Change the Weather History Date:

Sunday, March 24, 2013

  Actual Average Record
Temperature  
Mean Temperature 18 °F 39 °F  
Max Temperature 26 °F 52 °F 80 °F (1907)
Min Temperature 10 °F 26 °F -2 °F (2006)
Degree Days  
Heating Degree Days 47 26  
Month to date heating degree days 780 717  
Since 1 July heating degree days 5733 5953  
Cooling Degree Days 0 0  
Month to date cooling degree days 0 0  
Year to date cooling degree days 0 0  
Moisture  
Dew Point 13 °F    
Average Humidity 69    
Maximum Humidity 84    
Minimum Humidity 54    
Precipitation  
Precipitation 0.02 in 0.04 in 0.86 in (1901)
Month to date precipitation 1.44 0.75  
Year to date precipitation 2.67 1.49  
Snow  
Snow 0.50 in 0.20 in 7.80 in (1901)
Month to date snowfall 9.7 5.2  
Since 1 July snowfall 37.3 27.3  
Snow Depth 0.00 in    
Sea Level Pressure  
Sea Level Pressure 30.22 in    
Wind  
Wind Speed 15 mph (NNW)    
Max Wind Speed 28 mph    
Max Gust Speed 36 mph    
Visibility 7 miles    
Events Snow    
T = Trace of Precipitation, MM = Missing Value Source: NWS Daily Summary

Daily Weather History Graph

Daily Weather History Graph

Search for Another Location

Airport or City:

Trip Planner

Search our weather history database for the weather conditions in past years. The results will help you decide how hot, cold, wet, or windy it might be!

Date:

Astronomy

Mar. 24, 2013 Rise Set
Actual Time 7:37 AM CDT 7:59 PM CDT
Civil Twilight 7:09 AM CDT 8:27 PM CDT
Nautical Twilight 6:36 AM CDT 9:01 PM CDT
Astronomical Twilight 6:02 AM CDT 9:35 PM CDT
Moon 5:26 PM CDT (3/24) 5:52 AM CDT (3/24)
Length of Visible Light 13h 18m
Length of Day
12h 21m
Waxing Gibbous, 92% of the Moon is Illuminated
Mar 24
Waxing Gibbous
Mar 27
Full
Apr 2
Last Quarter
Apr 10
New
Apr 18
First Quarter

Hourly Weather History & Observations

Time (CDT) Temp. Windchill Dew Point Humidity Pressure Visibility Wind Dir Wind Speed Gust Speed Precip Events Conditions
12:52 AM 19.9 °F 8.6 °F 12.0 °F 71% 30.30 in - North 10.4 mph - N/A   Clear
1:52 AM 17.1 °F 7.6 °F 10.9 °F 77% 30.30 in - NW 6.9 mph - N/A   Clear
2:52 AM 16.0 °F 6.3 °F 10.0 °F 77% 30.30 in - WNW 6.9 mph - N/A   Clear
3:52 AM 15.1 °F 5.2 °F 9.0 °F 77% 30.29 in - WNW 6.9 mph - N/A   Clear
4:52 AM 12.9 °F 3.8 °F 8.1 °F 81% 30.27 in - West 5.8 mph - N/A   Clear
5:52 AM 12.0 °F 1.5 °F 7.0 °F 80% 30.27 in - WNW 6.9 mph - N/A   Clear
6:52 AM 10.9 °F 1.4 °F 6.1 °F 81% 30.27 in - West 5.8 mph - N/A   Clear
7:52 AM 10.9 °F -0.8 °F 7.0 °F 84% 30.27 in - WNW 8.1 mph - N/A   Clear
8:52 AM 17.1 °F 3.6 °F 10.0 °F 74% 30.26 in - NW 12.7 mph - N/A   Clear
9:52 AM 19.0 °F 3.2 °F 10.9 °F 71% 30.25 in 10.0 mi NNW 19.6 mph 24.2 mph N/A   Overcast
10:52 AM 21.9 °F 6.2 °F 10.9 °F 63% 30.23 in - NNW 21.9 mph 26.5 mph N/A   Partly Cloudy
11:52 AM 23.0 °F 7.2 °F 9.0 °F 55% 30.24 in - NW 23.0 mph 35.7 mph N/A   Clear
12:35 PM 24.8 °F 10.3 °F 10.4 °F 54% 30.12 in 10.0 mi NW 20.7 mph 28.8 mph N/A   Mostly Cloudy
12:52 PM 24.1 °F 9.0 °F 10.0 °F 55% 30.23 in 10.0 mi North 21.9 mph 28.8 mph N/A   Overcast
1:15 PM 24.8 °F 10.0 °F 10.4 °F 54% 30.11 in 10.0 mi NNW 21.9 mph 33.4 mph N/A   Overcast
1:52 PM 25.0 °F 10.6 °F 10.9 °F 55% 30.22 in - NW 20.7 mph 29.9 mph N/A   Overcast
2:52 PM 24.1 °F 9.0 °F 12.0 °F 60% 30.22 in - NW 21.9 mph 28.8 mph 0.00 in   Overcast
3:18 PM 24.8 °F 10.3 °F 12.2 °F 59% 30.10 in - NNW 20.7 mph 31.1 mph 0.00 in Snow Light Snow
3:36 PM 24.8 °F 9.3 °F 12.2 °F 59% 30.10 in 8.0 mi NW 24.2 mph 31.1 mph 0.00 in Snow Light Snow
3:52 PM 24.1 °F 8.7 °F 12.9 °F 62% 30.22 in - NNW 23.0 mph 32.2 mph 0.00 in Snow Light Snow
4:39 PM 23.0 °F 6.9 °F 15.8 °F 74% 30.10 in 2.0 mi NNW 24.2 mph 32.2 mph 0.00 in Snow Light Snow
4:47 PM 24.8 °F 11.1 °F 14.0 °F 64% 30.11 in - NNW 18.4 mph 31.1 mph 0.00 in Snow Light Snow
4:52 PM 24.1 °F 9.4 °F 15.1 °F 69% 30.23 in - NNW 20.7 mph 28.8 mph 0.00 in Snow Light Snow
5:12 PM 26.6 °F 12.0 °F 15.8 °F 64% 30.11 in 6.0 mi NNW 23.0 mph 28.8 mph 0.00 in Snow Light Snow
5:18 PM 24.8 °F 11.5 °F 17.6 °F 74% 30.11 in 1.8 mi North 17.3 mph 28.8 mph 0.00 in Snow Light Snow
5:25 PM 24.8 °F 10.3 °F 17.6 °F 74% 30.12 in 3.0 mi NNW 20.7 mph 25.3 mph 0.00 in Snow Light Snow
5:52 PM 24.1 °F 9.8 °F 16.0 °F 71% 30.25 in - NNW 19.6 mph 28.8 mph 0.00 in Snow Light Snow
6:45 PM 21.2 °F 6.8 °F 15.8 °F 80% 30.14 in - North 17.3 mph 28.8 mph 0.00 in Snow Light Snow
6:52 PM 21.9 °F 8.7 °F 17.1 °F 82% 30.27 in - NNW 15.0 mph - 0.00 in Snow Light Snow
7:38 PM 21.2 °F 10.1 °F 15.8 °F 80% 30.16 in - NNW 10.4 mph 20.7 mph 0.00 in   Partly Cloudy
7:52 PM 21.0 °F 8.1 °F 14.0 °F 74% 30.30 in - North 13.8 mph - 0.00 in   Partly Cloudy
8:52 PM 19.9 °F 7.9 °F 12.9 °F 74% 30.30 in - NNW 11.5 mph - N/A   Scattered Clouds
9:52 PM 19.9 °F 9.3 °F 14.0 °F 78% 30.32 in - NNW 9.2 mph - 0.00 in Snow Light Snow
10:11 PM 21.2 °F 11.7 °F 15.8 °F 80% 30.20 in - NW 8.1 mph - 0.00 in Snow Light Snow
10:35 PM 21.2 °F 8.3 °F 15.8 °F 80% 30.20 in - NNW 13.8 mph - 0.00 in   Overcast
10:52 PM 21.0 °F 7.6 °F 16.0 °F 81% 30.32 in - NNW 15.0 mph - 0.00 in   Overcast
11:36 PM 21.2 °F 7.3 °F 15.8 °F 80% 30.21 in - NNW 16.1 mph - 0.00 in Snow Light Snow
11:52 PM 21.0 °F 7.1 °F 16.0 °F 81% 30.33 in - NNW 16.1 mph 25.3 mph 0.00 in Snow Light Snow